Regional Weather Roundup
Issued by NWS Portland, ME

Home | Current Version | Previous Version | Text Only | Print | Product List | Glossary On
Versions: 1 2 3 4 5 6 7 8 9 10 11 12 13 14 15 16 17 18 19 20 21 22 23 24 25 26 27 28 29 30 31 32 33 34 35 36 37 38 39 40 41 42 43 44 45 46 47 48 49 50
000
ASUS41 KGYX 230410
RWRGYX
WEATHER ROUNDUP FOR MAINE AND NEW HAMPSHIRE
NATIONAL WEATHER SERVICE GRAY ME
1200 AM EDT TUE SEP 23 2014

MEZ002-005-006-010-012-015-018-020-021-024-026-027-029-230500-
MAINE

CITY           SKY/WX    TMP DP  RH WIND       PRES   REMARKS
PORTLAND       CLEAR     49  35  58 NW8       30.05R
SANFORD        CLEAR     48  34  57 W9        30.06R
BAR HARBOR     CLEAR     48  41  76 W3        29.98R
WISCASSET      CLEAR     49  37  63 VRB3      30.04R
ROCKLAND       CLEAR     48  36  61 W9        30.00R
FRYEBURG       CLEAR     50  33  52 NW10G30   30.04R
LEWISTONAUBURN CLEAR     48  34  57 CALM      30.02S
AUGUSTA        PTCLDY    48  36  63 W8        30.01R
WATERVILLE     CLEAR     48  34  57 W8        29.95R
BANGOR         PTCLDY    50  36  58 NW6       29.97R
GREENVILLE       N/A     43  37  79 NW8       29.91R
MILLINOCKET    PTCLDY    49  39  68 W12G25    29.92R
HOULTON        CLEAR     47  39  74 W8        29.85R
PRESQUE ISLE   PTCLDY    46  37  71 W5        29.83R
FRENCHVILLE    MOCLDY    45  37  73 W13       29.79R
CARIBOU        MOCLDY    45  40  82 SW7       29.81R
$$

NHZ002-005-008-009-011-012-014-230500-
NEW HAMPSHIRE

CITY           SKY/WX    TMP DP  RH WIND       PRES   REMARKS
PORTSMOUTH     CLEAR     50  38  62 W7        30.06R
ROCHESTER      CLEAR     50  35  56 VRB6      30.05R
NASHUA         CLEAR     48  39  71 NW3       30.09S
MANCHESTER     CLEAR     51  36  56 W5        30.07R
CONCORD        CLEAR     45  36  70 CALM      30.08R
LACONIA        MOCLDY    50  34  53 CALM      30.05R
PLYMOUTH       CLOUDY    49  42  77 NW3       30.08R
BERLIN         LGT RAIN  45  38  76 NW5       30.04R
WHITEFIELD     CLOUDY    47  36  65 SW5       30.07R
JAFFREY        CLEAR     44  38  79 SE5       30.09R
LEBANON        PTCLDY    43  36  76 S5        30.09R
MT WASHINGTON  SNOWSHWR  25  25 100 NW58G67     N/A  VSB 1/16WCI   3
$$

VTZ005-007-008-230500-
VERMONT

CITY           SKY/WX    TMP DP  RH WIND       PRES   REMARKS
ST JOHNSBURY     N/A     48  37  65 MISG      30.07R
MONTPELIER     PTCLDY    44  36  73 NW6       30.13R
BURLINGTON     PTCLDY    51  36  56 W7        30.13R
$$

MAZ007-012-024-CTZ003-RIZ002-NYZ038-NYZ072-230500-
SOUTHERN NEW ENGLAND AND NY

CITY           SKY/WX    TMP DP  RH WIND       PRES   REMARKS
BOSTON         CLEAR     54  38  54 NW8       30.09R
WORCESTER      CLEAR     47  38  71 NW6       30.09R
NANTUCKET      CLEAR     58  42  55 NW18      30.07R
PROVIDENCE     CLEAR     50  39  66 W5        30.11R
HARTFORD       CLEAR     50  39  66 N5        30.12R
ALBANY         PTCLDY    48  41  76 CALM      30.16R
NEW YORK CITY  PTCLDY    57  41  55 NW14G22   30.16R
$$

ANZ081-ANZ082-ANZ150-NHZ014-MEZ023>029-230500-
COASTAL MARINE OBSERVATIONS

STATION/POSITION TIME  TEMP    WIND        PRES    WAVE
                       AIR SEA DIR/SP/G            HT/PER
                 (UTC) (F)     (DEG/KT/KT) (MB)    (FT/S)
MOUNT DESERT ROC 0300   54                 1014.4
MATINICUS ROCK   0400          300/ 23/ 26 1015.4R
PORTLAND WX BUOY 0350   53 57  310/ 14/ 17 1017.0R   4/10
WELLS            0300   52 52  320/ 10/ 16 1016.2R
ISLE OF SHOALS   0400   54     300/ 16/ 17 1017.5R
JEFFREYS LEDGE   0321      59                N/A     6/11
CASHES LEDGE BUO 0350   55 58              1016.0R   7/11
$$

.............KEY..............
   WCI - WIND CHILL
   TC  - TEMPERATURE IN CELSIUS
   VSB - VISIBILITY IN MILES
   HX  - HEAT INDEX
   FAIR- INDICATES FEW OR NO CLOUDS BELOW 12,000 FT, WITH NO
         SIGNIFICANT WEATHER AND/OR OBSTRUCTIONS TO VISIBILITY.





USA.gov is the U.S. government's official web portal to all federal, state and local government web resources and services.